Provincetown, Massachusetts, United States (02657)
Lat: 42.06N, Lon: 70.18W
Wx Zone: MAZ022
Local Info
Past Weather Observations for Today

NOTE: This archive is for the closest National Weather Service station to Provincetown. Information may differ from the station used for current weather conditions.

Click here for Long-term Archive

Time Weather Temperature Dewpoint Humidity Pressure Winds Precip Visibility
14:56
Obscured
Fog
25°F / -4°C 21°F / -6°C 86% 30.06 in
(1018 mb)
N 10.4 mph
(N 17 kph)
0.07 in
(1.78 mm)
1/4SM
13:56
Obscured
Heavy Snow
25°F / -4°C 23°F / -5°C 93% 30.06 in
(1018 mb)
NNW 10.4 mph
(NNW 17 kph)
0.07 in
(1.78 mm)
1/4SM
13:14
Obscured
Heavy Snow
27°F / -3°C 25°F / -4°C 93% 30.06 in
(1018 mb)
NW 8.1 mph
(NW 13 kph)
0.02 in
(0.51 mm)
1/4SM
12:56
Overcast
Snow
27°F / -3°C 25°F / -4°C 93% 30.04 in
(1017 mb)
NW 11.5 mph
(NW 19 kph)
0.02 in
(0.51 mm)
1/2SM
12:03
Overcast
Snow
27°F / -3°C 25°F / -4°C 93% 30.04 in
(1017 mb)
NNW 11.5 mph
(NNW 19 kph)
0.00 in
(0.00 mm)
1/2SM
11:56
Obscured
Snow
27°F / -3°C 25°F / -4°C 93% 30.04 in
(1017 mb)
NNW 9.2 mph
(NNW 15 kph)
0.03 in
(0.76 mm)
1/2SM
10:56
Obscured
Light Snow
28°F / -2°C 27°F / -3°C 93% 30.06 in
(1018 mb)
NNW 10.4 mph
(NNW 17 kph)
0.01 in
(0.25 mm)
3/4SM
09:56
Overcast
Light Snow
30°F / -1°C 28°F / -2°C 93% 30.04 in
(1017 mb)
N 15 mph
(N 24 kph)
0.03 in
(0.76 mm)
3/4SM
08:56
Overcast
Snow
30°F / -1°C 28°F / -2°C 93% 30.01 in
(1016 mb)
NNW 8.1 mph
(NNW 13 kph)
0.04 in
(1.02 mm)
1/2SM
08:18
Overcast
Snow
30°F / -1°C 28°F / -2°C 93% 30.01 in
(1016 mb)
N 9.2 mph
(N 15 kph)
0.01 in
(0.25 mm)
1/2SM
07:56
Overcast
Snow
30°F / -1°C 30°F / -1°C 100% 30.01 in
(1016 mb)
N 11.5 mph
(N 19 kph)
0.04 in
(1.02 mm)
1/2SM
07:38
Overcast
Snow
32°F / 0°C 30°F / -1°C 93% 29.98 in
(1015 mb)
NNW 9.2 mph
(NNW 15 kph)
0.03 in
(0.76 mm)
1/2SM
06:56
Overcast
Light Snow
32°F / 0°C 30°F / -1°C 93% 29.95 in
(1014 mb)
NNW 5.8 mph
(NNW 9 kph)
0.04 in
(1.02 mm)
3/4SM
06:21
Overcast
Light Snow
32°F / 0°C 30°F / -1°C 93% 29.98 in
(1015 mb)
NW 8.1 mph
(NW 13 kph)
0.01 in
(0.25 mm)
1 1/4SM
05:56
Overcast
Light Snow
32°F / 0°C 30°F / -1°C 93% 29.95 in
(1014 mb)
NW 9.2 mph
(NW 15 kph)
0.02 in
(0.51 mm)
1 1/4SM
05:31
Overcast
Light Snow
34°F / 1°C 30°F / -1°C 87% 29.95 in
(1014 mb)
NNW 10.4 mph
(NNW 17 kph)
0.00 in
(0.00 mm)
1 3/4SM
05:26
Overcast
Light Snow
34°F / 1°C 30°F / -1°C 87% 29.92 in
(1013 mb)
NNW 8.1 mph
(NNW 13 kph)
0.00 in
(0.00 mm)
2 1/2SM
05:19
Overcast
Light Snow
34°F / 1°C 30°F / -1°C 87% 29.92 in
(1013 mb)
NNW 6.9 mph
(NNW 11 kph)
0.00 in
(0.00 mm)
3SM
05:10
Overcast
Light Snow
34°F / 1°C 30°F / -1°C 87% 29.89 in
(1012 mb)
NNW 8.1 mph
(NNW 13 kph)
0.00 in
(0.00 mm)
2SM
04:56
Overcast
Light Snow
34°F / 1°C 32°F / 0°C 93% 29.89 in
(1012 mb)
Variable 6.9 mph
(Variable 11 kph)
0.03 in
(0.76 mm)
1 1/2SM
04:47
Overcast
Light Snow
34°F / 1°C 32°F / 0°C 93% 29.89 in
(1012 mb)
NNW 5.8 mph
(NNW 9 kph)
0.03 in
(0.76 mm)
1 1/2SM
04:38
Overcast
Light Snow
34°F / 1°C 32°F / 0°C 93% 29.92 in
(1013 mb)
N 5.8 mph
(N 9 kph)
0.02 in
(0.51 mm)
2SM
04:28
Overcast
Light Snow
34°F / 1°C 32°F / 0°C 93% 29.92 in
(1013 mb)
NNW 8.1 mph
(NNW 13 kph)
0.02 in
(0.51 mm)
3SM
04:21
Overcast
Light Snow
34°F / 1°C 34°F / 1°C 100% 29.92 in
(1013 mb)
NNW 8.1 mph
(NNW 13 kph)
0.01 in
(0.25 mm)
5SM
04:13
Overcast
Light Rain
34°F / 1°C 34°F / 1°C 100% 29.89 in
(1012 mb)
NW 6.9 mph
(NW 11 kph)
0.01 in
(0.25 mm)
5SM
04:04
Overcast
Light Rain
36°F / 2°C 34°F / 1°C 93% 29.89 in
(1012 mb)
NW 4.6 mph
(NW 7 kph)
0.01 in
(0.25 mm)
5SM
03:56
Overcast
Light Rain
36°F / 2°C 34°F / 1°C 93% 29.89 in
(1012 mb)
NW 5.8 mph
(NW 9 kph)
0.02 in
(0.51 mm)
5SM
02:56
Overcast
Light Rain
36°F / 2°C 36°F / 2°C 100% 29.83 in
(1010 mb)
NW 3.5 mph
(NW 6 kph)
0.03 in
(0.76 mm)
3SM
02:36
Overcast
Light Rain
36°F / 2°C 36°F / 2°C 100% 29.83 in
(1010 mb)
Calm 0.02 in
(0.51 mm)
3SM
02:29
Overcast
Light Rain
36°F / 2°C 36°F / 2°C 100% 29.83 in
(1010 mb)
Calm 0.02 in
(0.51 mm)
2 1/2SM
02:16
Overcast
Light Rain
36°F / 2°C 34°F / 1°C 93% 29.83 in
(1010 mb)
Calm 0.01 in
(0.25 mm)
1 3/4SM
01:56
Overcast
Light Rain
36°F / 2°C 34°F / 1°C 93% 29.86 in
(1011 mb)
Calm 0.00 in
(0.00 mm)
2SM
01:25
Overcast
Light Rain
36°F / 2°C 36°F / 2°C 100% 29.86 in
(1011 mb)
Calm 0.00 in
(0.00 mm)
2 1/2SM
00:56
Overcast
Light Rain
36°F / 2°C 34°F / 1°C 93% 29.86 in
(1011 mb)
SW 3.5 mph
(SW 6 kph)
0.01 in
(0.25 mm)
4SM
Time Weather Temperature Dewpoint Humidity Pressure Winds Precip Visibility


Weather for websites

WeatherForYou.com, LLC is not responsible for any damages or problems caused by this service. Current weather conditions are obtained from the closest station including government and personal stations which may have varying degrees of accuracy. Weather forecasts are derived from the NOAA NDFD. Like all things, this site belongs to Jesus Christ... He just trusts me to maintain it. If you have any questions or comments email webmaster@weatherforyou.com

Copyright © 2015, WeatherForYou.com LLC. All rights reserved.